User: anonymous   Login
Location: *
(37.9500°N, 27.3666°E)
Time: 03:24:18
(UTC+00:00)
Language:

Cosmos 332 Rocket - Orbit

View from above orbital plane
View from above orbital plane
View from above satellite
View from above satellite

Ground track
Ground track

The orbit data is extracted from the following two-line orbital elements,

1  4370U 70028B   22020.70381098  .00000245  00000-0  57102-4 0  9993
2  4370  74.0396 127.0102 0016192 333.7602  26.2742 14.60167946256944
Epoch (UTC): 20 January 2022 16:53:29
Eccentricity: 0.0016192
inclination: 74.0396°
perigee height: 681 km
apogee height: 704 km
right ascension of ascending node: 127.0102°
argument of perigee: 333.7602°
revolutions per day: 14.60167946
mean anomaly at epoch: 26.2742°
orbit number at epoch: 25694

The dashed part of the orbit path shows where the satellite is in the earth's shadow,  

DLR